Time,TemperatureF,DewpointF,PressureIn,WindDirection,WindDirectionDegrees,WindSpeedMPH,WindSpeedGustMPH,Humidity,HourlyPrecipIn,Conditions,Clouds,dailyrainin,SoftwareType,DateUTC
2013-02-28 00:00:00,38.0,37.2,29.46,NNW,347,3.0,10.0,97,0.00,,,0.00,Wunderground v.1.12,2013-02-28 05:00:00,
2013-02-28 00:01:00,37.9,37.1,29.46,NNW,336,3.0,10.0,97,0.00,,,0.00,Wunderground v.1.12,2013-02-28 05:01:00,
2013-02-28 00:03:00,37.9,37.1,29.46,NNW,340,3.0,10.0,97,0.00,,,0.00,Wunderground v.1.12,2013-02-28 05:03:00,
2013-02-28 00:05:00,37.9,37.1,29.46,North,355,4.0,10.0,97,0.00,,,0.01,Wunderground v.1.12,2013-02-28 05:05:00,
2013-02-28 00:06:00,35.6,34.6,29.45,NNW,338,3.0,13.0,96,0.04,,,0.01,Wunderground v.1.12,2013-02-28 05:06:00,
2013-02-28 00:11:00,37.5,36.5,29.46,North,360,3.0,3.0,96,0.00,,,0.01,Wunderground v.1.12,2013-02-28 05:11:00,
2013-02-28 00:16:00,36.9,35.9,29.45,NNW,346,2.0,5.0,96,0.00,,,0.01,Wunderground v.1.12,2013-02-28 05:16:00,
2013-02-28 00:21:00,36.5,35.5,29.45,NNW,331,3.0,8.0,96,0.00,,,0.01,Wunderground v.1.12,2013-02-28 05:21:00,
2013-02-28 00:28:00,35.8,34.8,29.45,NNW,329,3.0,8.0,96,0.00,,,0.01,Wunderground v.1.12,2013-02-28 05:28:00,
2013-02-28 00:34:00,35.3,34.3,29.45,NNW,348,4.0,6.0,96,0.00,,,0.01,Wunderground v.1.12,2013-02-28 05:34:00,
2013-02-28 00:37:00,35.6,34.6,29.45,NNW,338,3.0,13.0,96,0.02,,,0.01,Wunderground v.1.12,2013-02-28 05:37:00,
2013-02-28 00:39:00,35.2,34.2,29.45,NNW,342,6.0,6.0,96,0.00,,,0.01,Wunderground v.1.12,2013-02-28 05:39:00,
2013-02-28 00:45:00,34.9,33.9,29.45,NNW,336,6.0,6.0,96,0.00,,,0.01,Wunderground v.1.12,2013-02-28 05:45:00,
2013-02-28 00:51:00,34.6,33.6,29.45,North,355,5.0,10.0,96,0.00,,,0.01,Wunderground v.1.12,2013-02-28 05:51:00,
2013-02-28 00:56:00,34.4,33.4,29.45,NW,311,5.0,8.0,96,0.00,,,0.01,Wunderground v.1.12,2013-02-28 05:56:00,
2013-02-28 01:03:00,34.3,33.3,29.46,NW,317,5.0,7.0,96,0.00,,,0.01,Wunderground v.1.12,2013-02-28 06:03:00,
2013-02-28 01:06:00,34.3,33.3,29.46,NNW,338,5.0,15.0,96,0.00,,,0.01,Wunderground v.1.12,2013-02-28 06:06:00,
2013-02-28 01:08:00,34.1,33.1,29.46,NNW,327,4.0,10.0,96,0.00,,,0.01,Wunderground v.1.12,2013-02-28 06:08:00,
2013-02-28 01:14:00,34.1,33.1,29.46,NNW,340,4.0,4.0,96,0.00,,,0.01,Wunderground v.1.12,2013-02-28 06:14:00,
2013-02-28 01:20:00,34.1,33.1,29.46,NNW,341,3.0,4.0,96,0.00,,,0.01,Wunderground v.1.12,2013-02-28 06:20:00,
2013-02-28 01:26:00,34.0,33.0,29.46,NNW,337,2.0,5.0,96,0.00,,,0.01,Wunderground v.1.12,2013-02-28 06:26:00,
2013-02-28 01:31:00,34.0,33.0,29.45,NNW,336,4.0,11.0,96,0.00,,,0.01,Wunderground v.1.12,2013-02-28 06:31:00,
2013-02-28 01:36:00,34.0,33.0,29.45,NNW,348,5.0,7.0,96,0.00,,,0.01,Wunderground v.1.12,2013-02-28 06:36:00,
2013-02-28 01:37:00,34.0,33.0,29.45,NNW,338,3.0,13.0,96,0.00,,,0.01,Wunderground v.1.12,2013-02-28 06:37:00,
2013-02-28 01:43:00,33.8,32.8,29.45,NNW,331,6.0,10.0,96,0.00,,,0.01,Wunderground v.1.12,2013-02-28 06:43:00,
2013-02-28 01:48:00,33.8,32.8,29.45,NW,311,4.0,6.0,96,0.00,,,0.01,Wunderground v.1.12,2013-02-28 06:48:00,
2013-02-28 01:54:00,33.7,32.7,29.45,NNW,329,4.0,4.0,96,0.00,,,0.01,Wunderground v.1.12,2013-02-28 06:54:00,
2013-02-28 01:59:00,33.7,32.7,29.45,North,5,4.0,6.0,96,0.00,,,0.01,Wunderground v.1.12,2013-02-28 06:59:00,
2013-02-28 02:04:00,33.7,32.7,29.45,NNW,343,3.0,3.0,96,0.00,,,0.01,Wunderground v.1.12,2013-02-28 07:04:00,
2013-02-28 02:06:00,33.7,32.7,29.44,NNW,338,4.0,14.0,96,0.00,,,0.01,Wunderground v.1.12,2013-02-28 07:06:00,
2013-02-28 02:09:00,33.5,32.5,29.45,NW,313,3.0,3.0,96,0.00,,,0.01,Wunderground v.1.12,2013-02-28 07:09:00,
2013-02-28 02:16:00,33.5,32.5,29.44,NNW,331,3.0,3.0,96,0.00,,,0.01,Wunderground v.1.12,2013-02-28 07:16:00,
2013-02-28 02:21:00,33.5,32.5,29.44,NNW,328,2.0,8.0,96,0.00,,,0.01,Wunderground v.1.12,2013-02-28 07:21:00,
2013-02-28 02:28:00,33.5,32.5,29.44,NW,324,2.0,3.0,96,0.00,,,0.01,Wunderground v.1.12,2013-02-28 07:28:00,
2013-02-28 02:33:00,33.5,32.5,29.45,NW,323,2.0,6.0,96,0.00,,,0.01,Wunderground v.1.12,2013-02-28 07:33:00,
2013-02-28 02:38:00,33.4,32.4,29.45,NW,323,1.0,3.0,96,0.00,,,0.01,Wunderground v.1.12,2013-02-28 07:38:00,
2013-02-28 02:44:00,33.4,32.4,29.46,WNW,286,2.0,4.0,96,0.00,,,0.01,Wunderground v.1.12,2013-02-28 07:44:00,
2013-02-28 02:50:00,33.4,32.4,29.46,WNW,286,2.0,3.0,96,0.00,,,0.01,Wunderground v.1.12,2013-02-28 07:50:00,
2013-02-28 02:57:00,33.4,32.4,29.46,WNW,286,1.0,1.0,96,0.00,,,0.01,Wunderground v.1.12,2013-02-28 07:57:00,
2013-02-28 03:03:00,33.4,32.4,29.46,WNW,286,1.0,3.0,96,0.00,,,0.01,Wunderground v.1.12,2013-02-28 08:03:00,
2013-02-28 03:08:00,33.4,32.4,29.46,WNW,286,2.0,3.0,96,0.00,,,0.01,Wunderground v.1.12,2013-02-28 08:08:00,
2013-02-28 03:15:00,33.4,32.4,29.47,WNW,286,2.0,2.0,96,0.00,,,0.01,Wunderground v.1.12,2013-02-28 08:15:00,
2013-02-28 03:20:00,33.4,32.4,29.47,WNW,286,3.0,3.0,96,0.00,,,0.01,Wunderground v.1.12,2013-02-28 08:20:00,
2013-02-28 03:26:00,33.4,32.4,29.47,WNW,288,3.0,3.0,96,0.00,,,0.01,Wunderground v.1.12,2013-02-28 08:26:00,
2013-02-28 03:33:00,33.4,32.4,29.48,WNW,288,3.0,5.0,96,0.00,,,0.01,Wunderground v.1.12,2013-02-28 08:33:00,
2013-02-28 03:37:00,33.4,32.4,29.48,WNW,293,2.0,6.0,96,0.00,,,0.01,Wunderground v.1.12,2013-02-28 08:37:00,
2013-02-28 03:38:00,33.4,32.4,29.48,WNW,289,3.0,4.0,96,0.00,,,0.01,Wunderground v.1.12,2013-02-28 08:38:00,
2013-02-28 03:43:00,33.4,32.4,29.48,WNW,289,3.0,3.0,96,0.00,,,0.01,Wunderground v.1.12,2013-02-28 08:43:00,
2013-02-28 03:48:00,33.4,32.4,29.48,WNW,290,2.0,3.0,96,0.00,,,0.01,Wunderground v.1.12,2013-02-28 08:48:00,
2013-02-28 03:53:00,33.2,32.2,29.48,WNW,289,3.0,7.0,96,0.00,,,0.01,Wunderground v.1.12,2013-02-28 08:53:00,
2013-02-28 03:58:00,33.2,32.2,29.48,WNW,289,2.0,2.0,96,0.00,,,0.01,Wunderground v.1.12,2013-02-28 08:58:00,
2013-02-28 04:03:00,33.2,32.2,29.47,WNW,290,2.0,5.0,96,0.00,,,0.01,Wunderground v.1.12,2013-02-28 09:03:00,
2013-02-28 04:07:00,33.2,32.2,29.47,WNW,293,2.0,8.0,96,0.00,,,0.01,Wunderground v.1.12,2013-02-28 09:07:00,
2013-02-28 04:09:00,33.2,32.2,29.47,WNW,290,2.0,2.0,96,0.00,,,0.01,Wunderground v.1.12,2013-02-28 09:09:00,
2013-02-28 04:14:00,33.1,32.1,29.48,WNW,290,2.0,2.0,96,0.00,,,0.01,Wunderground v.1.12,2013-02-28 09:14:00,
2013-02-28 04:20:00,33.1,32.1,29.48,WNW,290,2.0,2.0,96,0.00,,,0.01,Wunderground v.1.12,2013-02-28 09:20:00,
2013-02-28 04:27:00,33.1,32.1,29.48,WNW,290,2.0,3.0,96,0.00,,,0.01,Wunderground v.1.12,2013-02-28 09:27:00,
2013-02-28 04:33:00,33.1,32.1,29.48,WNW,290,1.0,3.0,96,0.00,,,0.01,Wunderground v.1.12,2013-02-28 09:33:00,
2013-02-28 04:37:00,33.1,32.1,29.48,WNW,293,2.0,7.0,96,0.00,,,0.01,Wunderground v.1.12,2013-02-28 09:37:00,
2013-02-28 04:38:00,33.1,32.1,29.48,WNW,290,1.0,2.0,96,0.00,,,0.01,Wunderground v.1.12,2013-02-28 09:38:00,
2013-02-28 04:43:00,33.1,32.1,29.48,WNW,290,1.0,1.0,96,0.00,,,0.01,Wunderground v.1.12,2013-02-28 09:43:00,
2013-02-28 04:49:00,33.1,32.1,29.49,WNW,290,1.0,1.0,96,0.00,,,0.01,Wunderground v.1.12,2013-02-28 09:49:00,
2013-02-28 04:55:00,33.1,32.1,29.49,WNW,290,1.0,1.0,96,0.00,,,0.01,Wunderground v.1.12,2013-02-28 09:55:00,
2013-02-28 05:00:00,33.1,32.1,29.48,WNW,290,0.0,0.0,96,0.00,,,0.01,Wunderground v.1.12,2013-02-28 10:00:00,
2013-02-28 05:06:00,33.1,32.1,29.48,WNW,290,1.0,2.0,96,0.00,,,0.01,Wunderground v.1.12,2013-02-28 10:06:00,
2013-02-28 05:07:00,33.1,32.1,29.48,WNW,293,1.0,5.0,96,0.00,,,0.01,Wunderground v.1.12,2013-02-28 10:07:00,
2013-02-28 05:13:00,33.1,32.1,29.48,WNW,290,2.0,3.0,96,0.00,,,0.01,Wunderground v.1.12,2013-02-28 10:13:00,
2013-02-28 05:18:00,33.1,32.1,29.50,WNW,290,2.0,3.0,96,0.00,,,0.01,Wunderground v.1.12,2013-02-28 10:18:00,
2013-02-28 05:24:00,33.1,32.1,29.50,WNW,290,1.0,1.0,96,0.00,,,0.01,Wunderground v.1.12,2013-02-28 10:24:00,
2013-02-28 05:29:00,33.1,32.1,29.50,WNW,290,1.0,2.0,96,0.00,,,0.01,Wunderground v.1.12,2013-02-28 10:29:00,
2013-02-28 05:35:00,33.1,32.1,29.50,WNW,290,1.0,1.0,96,0.00,,,0.01,Wunderground v.1.12,2013-02-28 10:35:00,
2013-02-28 05:38:00,33.1,32.1,29.50,WNW,293,1.0,4.0,96,0.00,,,0.01,Wunderground v.1.12,2013-02-28 10:38:00,
2013-02-28 05:40:00,33.1,32.1,29.50,WNW,290,0.0,1.0,96,0.00,,,0.01,Wunderground v.1.12,2013-02-28 10:40:00,
2013-02-28 05:46:00,33.1,32.1,29.51,WNW,290,1.0,3.0,96,0.00,,,0.01,Wunderground v.1.12,2013-02-28 10:46:00,
2013-02-28 05:51:00,33.1,32.1,29.51,WNW,290,1.0,2.0,96,0.00,,,0.01,Wunderground v.1.12,2013-02-28 10:51:00,
2013-02-28 05:58:00,33.1,32.1,29.51,WNW,290,1.0,1.0,96,0.00,,,0.01,Wunderground v.1.12,2013-02-28 10:58:00,
2013-02-28 06:03:00,33.1,32.1,29.51,WNW,290,1.0,3.0,96,0.00,,,0.01,Wunderground v.1.12,2013-02-28 11:03:00,
2013-02-28 06:06:00,33.1,32.1,29.51,WNW,293,1.0,3.0,96,0.00,,,0.01,Wunderground v.1.12,2013-02-28 11:06:00,
2013-02-28 06:08:00,33.1,32.1,29.51,WNW,290,1.0,2.0,96,0.00,,,0.01,Wunderground v.1.12,2013-02-28 11:08:00,
2013-02-28 06:13:00,33.1,32.1,29.51,WNW,290,0.0,1.0,96,0.00,,,0.01,Wunderground v.1.12,2013-02-28 11:13:00,
2013-02-28 06:18:00,33.2,32.2,29.51,WNW,290,1.0,2.0,96,0.00,,,0.01,Wunderground v.1.12,2013-02-28 11:18:00,
2013-02-28 06:24:00,33.2,32.2,29.51,WNW,290,1.0,1.0,96,0.00,,,0.01,Wunderground v.1.12,2013-02-28 11:24:00,
2013-02-28 06:30:00,33.4,32.4,29.52,WNW,290,2.0,2.0,96,0.00,,,0.01,Wunderground v.1.12,2013-02-28 11:30:00,
2013-02-28 06:36:00,33.4,32.4,29.52,WNW,290,2.0,4.0,96,0.00,,,0.01,Wunderground v.1.12,2013-02-28 11:36:00,
2013-02-28 06:37:00,33.4,32.4,29.52,WNW,293,1.0,5.0,96,0.00,,,0.01,Wunderground v.1.12,2013-02-28 11:37:00,
2013-02-28 06:43:00,33.4,32.4,29.52,WNW,282,3.0,4.0,96,0.00,,,0.01,Wunderground v.1.12,2013-02-28 11:43:00,
2013-02-28 06:48:00,33.4,32.4,29.52,WNW,282,3.0,3.0,96,0.00,,,0.01,Wunderground v.1.12,2013-02-28 11:48:00,
2013-02-28 06:53:00,33.4,32.4,29.52,WNW,282,2.0,3.0,96,0.00,,,0.01,Wunderground v.1.12,2013-02-28 11:53:00,
2013-02-28 06:58:00,33.4,32.4,29.52,WNW,282,2.0,3.0,96,0.00,,,0.01,Wunderground v.1.12,2013-02-28 11:58:00,
2013-02-28 07:04:00,33.4,32.4,29.52,WNW,282,2.0,4.0,96,0.00,,,0.01,Wunderground v.1.12,2013-02-28 12:04:00,
2013-02-28 07:08:00,33.4,32.4,29.52,WNW,293,2.0,7.0,96,0.00,,,0.01,Wunderground v.1.12,2013-02-28 12:08:00,
2013-02-28 07:09:00,33.5,32.5,29.52,WNW,282,1.0,1.0,96,0.00,,,0.01,Wunderground v.1.12,2013-02-28 12:09:00,
2013-02-28 07:14:00,33.5,32.5,29.52,WNW,282,1.0,1.0,96,0.00,,,0.01,Wunderground v.1.12,2013-02-28 12:14:00,
2013-02-28 07:20:00,33.5,32.5,29.52,WNW,282,1.0,1.0,96,0.00,,,0.01,Wunderground v.1.12,2013-02-28 12:20:00,
2013-02-28 07:25:00,33.7,32.7,29.52,WNW,282,1.0,1.0,96,0.00,,,0.01,Wunderground v.1.12,2013-02-28 12:25:00,
2013-02-28 07:31:00,33.8,32.8,29.51,WNW,282,1.0,2.0,96,0.00,,,0.01,Wunderground v.1.12,2013-02-28 12:31:00,
2013-02-28 07:37:00,33.7,32.7,29.51,WNW,293,1.0,4.0,96,0.00,,,0.01,Wunderground v.1.12,2013-02-28 12:37:00,
2013-02-28 07:38:00,33.8,32.5,29.51,WNW,282,1.0,2.0,95,0.00,,,0.01,Wunderground v.1.12,2013-02-28 12:38:00,
2013-02-28 07:43:00,34.0,32.7,29.51,WNW,282,1.0,4.0,95,0.00,,,0.01,Wunderground v.1.12,2013-02-28 12:43:00,
2013-02-28 07:48:00,34.0,32.7,29.52,WNW,282,2.0,3.0,95,0.00,,,0.01,Wunderground v.1.12,2013-02-28 12:48:00,
2013-02-28 07:54:00,34.3,33.0,29.52,WNW,282,2.0,3.0,95,0.00,,,0.01,Wunderground v.1.12,2013-02-28 12:54:00,
2013-02-28 07:59:00,34.4,33.1,29.52,WNW,282,2.0,2.0,95,0.00,,,0.01,Wunderground v.1.12,2013-02-28 12:59:00,
2013-02-28 08:05:00,34.3,32.8,29.52,WNW,282,2.0,4.0,94,0.00,,,0.01,Wunderground v.1.12,2013-02-28 13:05:00,
2013-02-28 08:06:00,34.4,33.1,29.52,WNW,293,2.0,5.0,95,0.00,,,0.01,Wunderground v.1.12,2013-02-28 13:06:00,
2013-02-28 08:11:00,34.4,32.9,29.52,WNW,282,2.0,3.0,94,0.00,,,0.01,Wunderground v.1.12,2013-02-28 13:11:00,
2013-02-28 08:16:00,34.6,33.1,29.51,WNW,282,2.0,3.0,94,0.00,,,0.01,Wunderground v.1.12,2013-02-28 13:16:00,
2013-02-28 08:23:00,34.6,33.1,29.51,WNW,283,3.0,4.0,94,0.00,,,0.01,Wunderground v.1.12,2013-02-28 13:23:00,
2013-02-28 08:28:00,34.9,33.1,29.51,WNW,283,3.0,3.0,93,0.00,,,0.01,Wunderground v.1.12,2013-02-28 13:28:00,
2013-02-28 08:33:00,35.2,33.4,29.51,WNW,283,1.0,2.0,93,0.00,,,0.01,Wunderground v.1.12,2013-02-28 13:33:00,
2013-02-28 08:36:00,34.9,33.1,29.51,WNW,293,2.0,7.0,93,0.00,,,0.01,Wunderground v.1.12,2013-02-28 13:36:00,
2013-02-28 08:39:00,35.5,33.7,29.51,WNW,283,0.0,1.0,93,0.00,,,0.01,Wunderground v.1.12,2013-02-28 13:39:00,
2013-02-28 08:45:00,35.6,33.5,29.52,WNW,283,1.0,2.0,92,0.00,,,0.01,Wunderground v.1.12,2013-02-28 13:45:00,
2013-02-28 08:51:00,35.6,33.5,29.52,WNW,283,1.0,2.0,92,0.00,,,0.01,Wunderground v.1.12,2013-02-28 13:51:00,
2013-02-28 08:58:00,35.9,33.5,29.52,WNW,283,1.0,1.0,91,0.00,,,0.01,Wunderground v.1.12,2013-02-28 13:58:00,
2013-02-28 09:03:00,36.2,33.8,29.52,WNW,283,0.0,1.0,91,0.00,,,0.01,Wunderground v.1.12,2013-02-28 14:03:00,
2013-02-28 09:06:00,36.0,33.6,29.52,WNW,293,1.0,3.0,91,0.00,,,0.01,Wunderground v.1.12,2013-02-28 14:06:00,
2013-02-28 09:08:00,36.3,33.6,29.52,WNW,283,1.0,3.0,90,0.00,,,0.01,Wunderground v.1.12,2013-02-28 14:08:00,
2013-02-28 09:14:00,36.3,33.6,29.52,WNW,283,2.0,2.0,90,0.00,,,0.01,Wunderground v.1.12,2013-02-28 14:14:00,
2013-02-28 09:20:00,36.6,33.7,29.52,WNW,283,2.0,3.0,89,0.00,,,0.01,Wunderground v.1.12,2013-02-28 14:20:00,
2013-02-28 09:25:00,36.9,34.0,29.52,WNW,283,2.0,3.0,89,0.00,,,0.01,Wunderground v.1.12,2013-02-28 14:25:00,
2013-02-28 09:30:00,36.9,33.7,29.52,WNW,283,2.0,2.0,88,0.00,,,0.01,Wunderground v.1.12,2013-02-28 14:30:00,
2013-02-28 09:36:00,36.9,33.7,29.52,WNW,283,2.0,4.0,88,0.00,,,0.01,Wunderground v.1.12,2013-02-28 14:36:00,
2013-02-28 09:37:00,36.9,33.7,29.52,WNW,293,2.0,5.0,88,0.00,,,0.01,Wunderground v.1.12,2013-02-28 14:37:00,
2013-02-28 09:43:00,37.0,33.8,29.52,WNW,283,1.0,3.0,88,0.00,,,0.01,Wunderground v.1.12,2013-02-28 14:43:00,
2013-02-28 09:48:00,37.5,34.3,29.52,WNW,283,1.0,1.0,88,0.00,,,0.01,Wunderground v.1.12,2013-02-28 14:48:00,
2013-02-28 09:53:00,37.8,34.6,29.52,WNW,283,0.0,1.0,88,0.00,,,0.01,Wunderground v.1.12,2013-02-28 14:53:00,
2013-02-28 09:58:00,38.0,34.5,29.52,West,279,0.0,4.0,87,0.00,,,0.01,Wunderground v.1.12,2013-02-28 14:58:00,
2013-02-28 10:04:00,38.3,34.5,29.52,West,279,1.0,1.0,86,0.00,,,0.01,Wunderground v.1.12,2013-02-28 15:04:00,
2013-02-28 10:06:00,38.2,34.7,29.52,WNW,293,1.0,5.0,87,0.00,,,0.01,Wunderground v.1.12,2013-02-28 15:06:00,
2013-02-28 10:09:00,38.8,34.7,29.52,West,279,1.0,1.0,85,0.00,,,0.01,Wunderground v.1.12,2013-02-28 15:09:00,
2013-02-28 10:16:00,38.8,34.7,29.52,West,279,0.0,1.0,85,0.00,,,0.01,Wunderground v.1.12,2013-02-28 15:16:00,
2013-02-28 10:23:00,39.1,34.7,29.52,West,279,0.0,0.0,84,0.00,,,0.01,Wunderground v.1.12,2013-02-28 15:23:00,
2013-02-28 10:28:00,39.3,34.6,29.52,West,279,0.0,1.0,83,0.00,,,0.01,Wunderground v.1.12,2013-02-28 15:28:00,
2013-02-28 10:33:00,39.6,34.9,29.52,West,279,0.0,0.0,83,0.00,,,0.01,Wunderground v.1.12,2013-02-28 15:33:00,
2013-02-28 10:36:00,39.5,34.8,29.52,West,270,0.0,4.0,83,0.00,,,0.01,Wunderground v.1.12,2013-02-28 15:36:00,
2013-02-28 10:38:00,39.5,34.5,29.52,West,279,0.0,4.0,82,0.00,,,0.01,Wunderground v.1.12,2013-02-28 15:38:00,
2013-02-28 10:44:00,39.3,34.0,29.52,West,279,2.0,2.0,81,0.00,,,0.01,Wunderground v.1.12,2013-02-28 15:44:00,
2013-02-28 10:50:00,39.3,34.0,29.52,West,279,2.0,2.0,81,0.00,,,0.01,Wunderground v.1.12,2013-02-28 15:50:00,
2013-02-28 10:56:00,39.6,33.9,29.52,West,279,1.0,2.0,80,0.00,,,0.01,Wunderground v.1.12,2013-02-28 15:56:00,
2013-02-28 11:03:00,39.9,34.2,29.51,West,279,0.0,3.0,80,0.00,,,0.01,Wunderground v.1.12,2013-02-28 16:03:00,
2013-02-28 11:05:00,39.6,33.9,29.51,West,270,1.0,5.0,80,0.00,,,0.01,Wunderground v.1.12,2013-02-28 16:05:00,
2013-02-28 11:08:00,40.1,33.8,29.51,West,279,1.0,4.0,78,0.00,,,0.01,Wunderground v.1.12,2013-02-28 16:08:00,
2013-02-28 11:13:00,40.1,33.8,29.51,West,279,1.0,2.0,78,0.00,,,0.01,Wunderground v.1.12,2013-02-28 16:13:00,
2013-02-28 11:19:00,40.3,33.7,29.51,West,279,0.0,0.0,77,0.00,,,0.01,Wunderground v.1.12,2013-02-28 16:19:00,
2013-02-28 11:24:00,40.6,34.0,29.51,West,279,0.0,0.0,77,0.00,,,0.01,Wunderground v.1.12,2013-02-28 16:24:00,
2013-02-28 11:29:00,40.9,33.9,29.50,West,279,1.0,1.0,76,0.00,,,0.01,Wunderground v.1.12,2013-02-28 16:29:00,
2013-02-28 11:35:00,41.1,34.1,29.50,West,279,1.0,2.0,76,0.00,,,0.01,Wunderground v.1.12,2013-02-28 16:35:00,
2013-02-28 11:36:00,40.9,33.9,29.50,West,270,1.0,5.0,76,0.00,,,0.02,Wunderground v.1.12,2013-02-28 16:36:00,
2013-02-28 11:41:00,41.2,34.2,29.50,West,279,1.0,1.0,76,0.00,,,0.01,Wunderground v.1.12,2013-02-28 16:41:00,
2013-02-28 11:48:00,41.2,33.9,29.51,West,279,1.0,4.0,75,0.00,,,0.01,Wunderground v.1.12,2013-02-28 16:48:00,
2013-02-28 11:53:00,41.2,33.9,29.51,West,277,2.0,3.0,75,0.00,,,0.02,Wunderground v.1.12,2013-02-28 16:53:00,
2013-02-28 11:58:00,41.3,34.0,29.51,West,277,1.0,2.0,75,0.00,,,0.02,Wunderground v.1.12,2013-02-28 16:58:00,
2013-02-28 12:03:00,41.5,33.8,29.50,West,277,1.0,3.0,74,0.00,,,0.02,Wunderground v.1.12,2013-02-28 17:03:00,
2013-02-28 12:06:00,41.5,34.2,29.50,West,270,1.0,6.0,75,0.01,,,0.02,Wunderground v.1.12,2013-02-28 17:06:00,
2013-02-28 12:08:00,41.8,34.5,29.50,West,277,1.0,1.0,75,0.00,,,0.02,Wunderground v.1.12,2013-02-28 17:08:00,
2013-02-28 12:14:00,42.1,34.1,29.49,West,277,0.0,0.0,73,0.00,,,0.02,Wunderground v.1.12,2013-02-28 17:14:00,
2013-02-28 12:20:00,42.1,33.7,29.49,West,277,0.0,1.0,72,0.00,,,0.02,Wunderground v.1.12,2013-02-28 17:20:00,
2013-02-28 12:26:00,42.1,33.7,29.49,West,277,0.0,0.0,72,0.00,,,0.02,Wunderground v.1.12,2013-02-28 17:26:00,
2013-02-28 12:31:00,42.2,33.8,29.49,West,277,1.0,4.0,72,0.00,,,0.02,Wunderground v.1.12,2013-02-28 17:31:00,
2013-02-28 12:37:00,42.2,33.8,29.49,West,270,0.0,4.0,72,0.01,,,0.02,Wunderground v.1.12,2013-02-28 17:37:00,
2013-02-28 12:38:00,42.8,34.4,29.49,West,277,1.0,2.0,72,0.00,,,0.02,Wunderground v.1.12,2013-02-28 17:38:00,
2013-02-28 12:44:00,43.2,34.1,29.49,West,277,1.0,2.0,70,0.00,,,0.02,Wunderground v.1.12,2013-02-28 17:44:00,
2013-02-28 12:49:00,43.3,34.2,29.48,West,277,1.0,1.0,70,0.00,,,0.02,Wunderground v.1.12,2013-02-28 17:49:00,
2013-02-28 12:55:00,42.9,33.8,29.48,West,259,2.0,5.0,70,0.00,,,0.02,Wunderground v.1.12,2013-02-28 17:55:00,
2013-02-28 13:01:00,42.8,33.7,29.47,West,259,4.0,4.0,70,0.00,,,0.02,Wunderground v.1.12,2013-02-28 18:01:00,
2013-02-28 13:06:00,42.9,33.8,29.47,West,259,2.0,3.0,70,0.00,,,0.02,Wunderground v.1.12,2013-02-28 18:06:00,
2013-02-28 13:08:00,42.8,33.7,29.47,West,270,2.0,9.0,70,0.00,,,0.02,Wunderground v.1.12,2013-02-28 18:08:00,
2013-02-28 13:11:00,43.1,34.0,29.47,West,259,1.0,2.0,70,0.00,,,0.02,Wunderground v.1.12,2013-02-28 18:11:00,
2013-02-28 13:18:00,43.1,34.0,29.46,West,265,2.0,5.0,70,0.00,,,0.02,Wunderground v.1.12,2013-02-28 18:18:00,
2013-02-28 13:23:00,43.2,33.7,29.46,West,265,3.0,4.0,69,0.00,,,0.02,Wunderground v.1.12,2013-02-28 18:23:00,
2013-02-28 13:28:00,43.3,33.8,29.46,West,266,2.0,3.0,69,0.00,,,0.02,Wunderground v.1.12,2013-02-28 18:28:00,
2013-02-28 13:33:00,43.6,34.1,29.46,West,266,2.0,4.0,69,0.00,,,0.02,Wunderground v.1.12,2013-02-28 18:33:00,
2013-02-28 13:38:00,43.5,34.0,29.46,West,270,2.0,7.0,69,0.00,,,0.02,Wunderground v.1.12,2013-02-28 18:38:00,
2013-02-28 13:39:00,43.8,34.3,29.46,West,266,2.0,2.0,69,0.00,,,0.02,Wunderground v.1.12,2013-02-28 18:39:00,
2013-02-28 13:45:00,43.9,34.0,29.45,West,266,2.0,3.0,68,0.00,,,0.02,Wunderground v.1.12,2013-02-28 18:45:00,
2013-02-28 13:51:00,44.1,34.2,29.45,West,266,2.0,3.0,68,0.00,,,0.02,Wunderground v.1.12,2013-02-28 18:51:00,
2013-02-28 13:58:00,44.5,34.2,29.45,West,266,1.0,3.0,67,0.00,,,0.02,Wunderground v.1.12,2013-02-28 18:58:00,
2013-02-28 14:03:00,44.6,33.9,29.45,West,266,1.0,3.0,66,0.00,,,0.02,Wunderground v.1.12,2013-02-28 19:03:00,
2013-02-28 14:06:00,44.5,34.2,29.45,West,270,2.0,9.0,67,0.00,,,0.02,Wunderground v.1.12,2013-02-28 19:06:00,
2013-02-28 14:08:00,44.8,34.1,29.45,West,268,2.0,5.0,66,0.00,,,0.02,Wunderground v.1.12,2013-02-28 19:08:00,
2013-02-28 14:13:00,45.1,34.4,29.45,West,268,2.0,2.0,66,0.00,,,0.02,Wunderground v.1.12,2013-02-28 19:13:00,
2013-02-28 14:18:00,45.4,34.3,29.45,West,268,2.0,2.0,65,0.00,,,0.02,Wunderground v.1.12,2013-02-28 19:18:00,
2013-02-28 14:23:00,46.0,34.5,29.45,West,269,1.0,2.0,64,0.00,,,0.02,Wunderground v.1.12,2013-02-28 19:23:00,
2013-02-28 14:29:00,46.2,34.3,29.44,NW,306,2.0,2.0,63,0.00,,,0.02,Wunderground v.1.12,2013-02-28 19:29:00,
2013-02-28 14:34:00,46.0,34.5,29.44,NNW,328,3.0,4.0,64,0.00,,,0.02,Wunderground v.1.12,2013-02-28 19:34:00,
2013-02-28 14:36:00,46.2,34.3,29.44,West,270,2.0,9.0,63,0.00,,,0.02,Wunderground v.1.12,2013-02-28 19:36:00,
2013-02-28 14:39:00,46.2,34.7,29.44,NNW,328,3.0,4.0,64,0.00,,,0.02,Wunderground v.1.12,2013-02-28 19:39:00,
2013-02-28 14:45:00,46.5,34.6,29.44,NNW,335,3.0,3.0,63,0.00,,,0.02,Wunderground v.1.12,2013-02-28 19:45:00,
2013-02-28 14:51:00,46.8,34.9,29.44,NNW,334,2.0,4.0,63,0.00,,,0.02,Wunderground v.1.12,2013-02-28 19:51:00,
2013-02-28 14:56:00,47.0,34.6,29.44,NNW,334,2.0,4.0,62,0.00,,,0.02,Wunderground v.1.12,2013-02-28 19:56:00,
2013-02-28 15:03:00,47.3,34.9,29.44,NNW,331,2.0,4.0,62,0.00,,,0.02,Wunderground v.1.12,2013-02-28 20:03:00,
2013-02-28 15:06:00,47.0,35.0,29.44,NNW,338,3.0,9.0,63,0.00,,,0.02,Wunderground v.1.12,2013-02-28 20:06:00,
2013-02-28 15:09:00,47.1,34.7,29.44,NNW,327,2.0,2.0,62,0.00,,,0.02,Wunderground v.1.12,2013-02-28 20:09:00,
2013-02-28 15:15:00,46.8,34.9,29.44,NNW,327,1.0,1.0,63,0.00,,,0.02,Wunderground v.1.12,2013-02-28 20:15:00,
2013-02-28 15:21:00,46.5,34.6,29.44,NW,321,1.0,5.0,63,0.00,,,0.02,Wunderground v.1.12,2013-02-28 20:21:00,
2013-02-28 15:28:00,46.7,34.8,29.44,NW,321,1.0,2.0,63,0.00,,,0.02,Wunderground v.1.12,2013-02-28 20:28:00,
2013-02-28 15:33:00,47.1,34.7,29.44,NW,321,1.0,3.0,62,0.00,,,0.02,Wunderground v.1.12,2013-02-28 20:33:00,
2013-02-28 15:36:00,46.8,34.9,29.44,NNW,338,1.0,5.0,63,0.00,,,0.02,Wunderground v.1.12,2013-02-28 20:36:00,
2013-02-28 15:39:00,47.4,35.0,29.44,NW,322,2.0,2.0,62,0.00,,,0.02,Wunderground v.1.12,2013-02-28 20:39:00,
2013-02-28 15:45:00,47.0,34.6,29.43,NW,312,2.0,2.0,62,0.00,,,0.02,Wunderground v.1.12,2013-02-28 20:45:00,
2013-02-28 15:51:00,47.4,34.6,29.43,NW,312,2.0,3.0,61,0.00,,,0.02,Wunderground v.1.12,2013-02-28 20:51:00,
2013-02-28 15:58:00,47.6,35.2,29.43,NW,315,2.0,2.0,62,0.00,,,0.02,Wunderground v.1.12,2013-02-28 20:58:00,
2013-02-28 16:03:00,47.9,35.5,29.43,NW,315,1.0,1.0,62,0.00,,,0.02,Wunderground v.1.12,2013-02-28 21:03:00,
2013-02-28 16:06:00,47.6,35.2,29.43,NW,315,2.0,6.0,62,0.00,,,0.02,Wunderground v.1.12,2013-02-28 21:06:00,
2013-02-28 16:10:00,48.0,35.2,29.43,NW,316,1.0,3.0,61,0.00,,,0.02,Wunderground v.1.12,2013-02-28 21:10:00,
2013-02-28 16:15:00,47.6,35.2,29.43,NW,316,2.0,3.0,62,0.00,,,0.02,Wunderground v.1.12,2013-02-28 21:15:00,
2013-02-28 16:20:00,47.3,35.3,29.43,NW,317,2.0,2.0,63,0.00,,,0.02,Wunderground v.1.12,2013-02-28 21:20:00,
2013-02-28 16:26:00,47.3,35.3,29.43,NW,317,1.0,5.0,63,0.00,,,0.02,Wunderground v.1.12,2013-02-28 21:26:00,
2013-02-28 16:31:00,47.0,35.4,29.43,NW,317,1.0,4.0,64,0.00,,,0.02,Wunderground v.1.12,2013-02-28 21:31:00,
2013-02-28 16:36:00,46.8,35.3,29.43,NW,317,1.0,2.0,64,0.00,,,0.02,Wunderground v.1.12,2013-02-28 21:36:00,
2013-02-28 16:37:00,47.1,35.5,29.43,NW,315,1.0,5.0,64,0.00,,,0.02,Wunderground v.1.12,2013-02-28 21:37:00,
2013-02-28 16:43:00,46.8,35.3,29.43,NW,317,0.0,1.0,64,0.00,,,0.02,Wunderground v.1.12,2013-02-28 21:43:00,
2013-02-28 16:48:00,46.7,35.2,29.43,NW,317,0.0,1.0,64,0.00,,,0.02,Wunderground v.1.12,2013-02-28 21:48:00,
2013-02-28 16:53:00,46.7,35.6,29.43,NW,317,0.0,0.0,65,0.00,,,0.02,Wunderground v.1.12,2013-02-28 21:53:00,
2013-02-28 16:59:00,46.5,35.4,29.43,NW,317,0.0,0.0,65,0.00,,,0.02,Wunderground v.1.12,2013-02-28 21:59:00,
2013-02-28 17:04:00,46.2,35.5,29.43,NW,317,0.0,0.0,66,0.00,,,0.02,Wunderground v.1.12,2013-02-28 22:04:00,
2013-02-28 17:07:00,46.5,35.4,29.43,NW,315,0.0,5.0,65,0.00,,,0.02,Wunderground v.1.12,2013-02-28 22:07:00,
2013-02-28 17:09:00,45.7,35.4,29.43,NW,317,0.0,0.0,67,0.00,,,0.02,Wunderground v.1.12,2013-02-28 22:09:00,
2013-02-28 17:14:00,44.9,35.0,29.43,NW,317,0.0,0.0,68,0.00,,,0.02,Wunderground v.1.12,2013-02-28 22:14:00,
2013-02-28 17:20:00,44.5,35.0,29.43,NW,317,0.0,0.0,69,0.00,,,0.02,Wunderground v.1.12,2013-02-28 22:20:00,
2013-02-28 17:25:00,44.2,35.0,29.43,NW,317,0.0,1.0,70,0.00,,,0.02,Wunderground v.1.12,2013-02-28 22:25:00,
2013-02-28 17:31:00,43.9,34.7,29.44,NW,317,0.0,0.0,70,0.00,,,0.02,Wunderground v.1.12,2013-02-28 22:31:00,
2013-02-28 17:36:00,43.8,35.0,29.44,NW,317,0.0,0.0,71,0.00,,,0.02,Wunderground v.1.12,2013-02-28 22:36:00,
2013-02-28 17:37:00,43.9,34.7,29.44,NW,315,0.0,1.0,70,0.00,,,0.02,Wunderground v.1.12,2013-02-28 22:37:00,
2013-02-28 17:43:00,43.6,34.8,29.44,NW,317,0.0,1.0,71,0.00,,,0.02,Wunderground v.1.12,2013-02-28 22:43:00,
2013-02-28 17:48:00,43.5,34.7,29.44,NW,317,0.0,0.0,71,0.00,,,0.02,Wunderground v.1.12,2013-02-28 22:48:00,
2013-02-28 17:54:00,43.1,34.7,29.44,NW,317,0.0,0.0,72,0.00,,,0.02,Wunderground v.1.12,2013-02-28 22:54:00,
2013-02-28 17:59:00,42.9,34.8,29.45,NW,317,0.0,0.0,73,0.00,,,0.02,Wunderground v.1.12,2013-02-28 22:59:00,
2013-02-28 18:04:00,42.9,34.8,29.45,NW,317,0.0,0.0,73,0.00,,,0.02,Wunderground v.1.12,2013-02-28 23:04:00,
2013-02-28 18:05:00,42.9,34.8,29.45,NW,315,0.0,1.0,73,0.00,,,0.02,Wunderground v.1.12,2013-02-28 23:05:00,
2013-02-28 18:10:00,42.8,34.7,29.45,NW,317,0.0,0.0,73,0.00,,,0.02,Wunderground v.1.12,2013-02-28 23:10:00,
2013-02-28 18:15:00,42.6,34.5,29.46,NW,317,0.0,0.0,73,0.00,,,0.02,Wunderground v.1.12,2013-02-28 23:15:00,
2013-02-28 18:21:00,42.5,34.8,29.46,NW,317,0.0,1.0,74,0.00,,,0.02,Wunderground v.1.12,2013-02-28 23:21:00,
2013-02-28 18:26:00,42.3,34.6,29.46,NW,317,0.0,0.0,74,0.00,,,0.02,Wunderground v.1.12,2013-02-28 23:26:00,
2013-02-28 18:33:00,42.2,34.8,29.46,NW,317,0.0,0.0,75,0.00,,,0.02,Wunderground v.1.12,2013-02-28 23:33:00,
2013-02-28 18:35:00,42.3,34.9,29.46,NW,315,0.0,3.0,75,0.00,,,0.02,Wunderground v.1.12,2013-02-28 23:35:00,
2013-02-28 18:38:00,41.9,34.9,29.46,NW,317,0.0,0.0,76,0.00,,,0.02,Wunderground v.1.12,2013-02-28 23:38:00,
2013-02-28 18:44:00,41.6,34.9,29.45,NW,317,0.0,1.0,77,0.00,,,0.02,Wunderground v.1.12,2013-02-28 23:44:00,
2013-02-28 18:49:00,41.5,34.8,29.45,NW,317,1.0,1.0,77,0.00,,,0.02,Wunderground v.1.12,2013-02-28 23:49:00,
2013-02-28 18:54:00,41.3,34.6,29.45,NW,317,0.0,0.0,77,0.00,,,0.02,Wunderground v.1.12,2013-02-28 23:54:00,
2013-02-28 19:00:00,40.8,34.5,29.46,NW,317,0.0,0.0,78,0.00,,,0.02,Wunderground v.1.12,2013-03-01 00:00:00,
2013-02-28 19:06:00,40.5,34.5,29.46,NW,317,0.0,0.0,79,0.00,,,0.02,Wunderground v.1.12,2013-03-01 00:06:00,
2013-02-28 19:11:00,40.5,34.8,29.46,NW,317,0.0,1.0,80,0.00,,,0.02,Wunderground v.1.12,2013-03-01 00:11:00,
2013-02-28 19:18:00,40.5,34.8,29.45,NW,317,0.0,0.0,80,0.00,,,0.02,Wunderground v.1.12,2013-03-01 00:18:00,
2013-02-28 19:23:00,40.5,34.8,29.45,NW,317,0.0,2.0,80,0.00,,,0.02,Wunderground v.1.12,2013-03-01 00:23:00,
2013-02-28 19:28:00,40.3,34.6,29.45,NW,317,0.0,0.0,80,0.00,,,0.02,Wunderground v.1.12,2013-03-01 00:28:00,
2013-02-28 19:33:00,40.2,34.5,29.45,NW,317,0.0,0.0,80,0.00,,,0.02,Wunderground v.1.12,2013-03-01 00:33:00,
2013-02-28 19:36:00,40.3,34.6,29.45,NW,315,0.0,4.0,80,0.00,,,0.02,Wunderground v.1.12,2013-03-01 00:36:00,
2013-02-28 19:38:00,40.2,34.5,29.45,NW,317,0.0,0.0,80,0.00,,,0.02,Wunderground v.1.12,2013-03-01 00:38:00,
2013-02-28 19:43:00,40.1,34.7,29.45,NW,317,0.0,3.0,81,0.00,,,0.02,Wunderground v.1.12,2013-03-01 00:43:00,
2013-02-28 19:49:00,39.9,34.5,29.45,NW,317,1.0,1.0,81,0.00,,,0.02,Wunderground v.1.12,2013-03-01 00:49:00,
2013-02-28 19:54:00,39.8,34.4,29.45,NW,317,0.0,0.0,81,0.00,,,0.02,Wunderground v.1.12,2013-03-01 00:54:00,
2013-02-28 19:59:00,39.8,34.8,29.45,NW,317,0.0,0.0,82,0.00,,,0.02,Wunderground v.1.12,2013-03-01 00:59:00,
2013-02-28 20:04:00,39.6,34.6,29.45,NW,317,0.0,8.0,82,0.00,,,0.02,Wunderground v.1.12,2013-03-01 01:04:00,
2013-02-28 20:08:00,39.6,34.6,29.45,NW,315,0.0,4.0,82,0.00,,,0.02,Wunderground v.1.12,2013-03-01 01:08:00,
2013-02-28 20:09:00,39.5,34.8,29.45,NW,319,1.0,1.0,83,0.00,,,0.02,Wunderground v.1.12,2013-03-01 01:09:00,
2013-02-28 20:15:00,39.3,34.9,29.46,NW,321,1.0,2.0,84,0.00,,,0.02,Wunderground v.1.12,2013-03-01 01:15:00,
2013-02-28 20:21:00,39.2,34.8,29.46,NW,321,0.0,0.0,84,0.00,,,0.02,Wunderground v.1.12,2013-03-01 01:21:00,
2013-02-28 20:28:00,38.9,34.8,29.46,NNW,333,1.0,2.0,85,0.00,,,0.02,Wunderground v.1.12,2013-03-01 01:28:00,
2013-02-28 20:33:00,38.8,34.7,29.46,NNW,341,1.0,4.0,85,0.00,,,0.02,Wunderground v.1.12,2013-03-01 01:33:00,
2013-02-28 20:36:00,38.9,34.8,29.46,NW,315,1.0,10.0,85,0.00,,,0.02,Wunderground v.1.12,2013-03-01 01:36:00,
2013-02-28 20:38:00,38.8,35.0,29.46,NNW,341,1.0,1.0,86,0.00,,,0.02,Wunderground v.1.12,2013-03-01 01:38:00,
2013-02-28 20:43:00,38.6,34.8,29.46,NNW,341,1.0,2.0,86,0.00,,,0.02,Wunderground v.1.12,2013-03-01 01:43:00,
2013-02-28 20:48:00,38.5,35.0,29.46,NNW,339,1.0,1.0,87,0.00,,,0.02,Wunderground v.1.12,2013-03-01 01:48:00,
2013-02-28 20:54:00,38.2,34.7,29.46,NNW,341,1.0,2.0,87,0.00,,,0.02,Wunderground v.1.12,2013-03-01 01:54:00,
2013-02-28 20:59:00,38.0,34.5,29.46,NNW,338,1.0,1.0,87,0.00,,,0.02,Wunderground v.1.12,2013-03-01 01:59:00,
2013-02-28 21:04:00,37.8,34.3,29.46,NNW,329,2.0,2.0,87,0.00,,,0.02,Wunderground v.1.12,2013-03-01 02:04:00,
2013-02-28 21:08:00,38.0,34.5,29.46,NNW,338,1.0,6.0,87,0.00,,,0.02,Wunderground v.1.12,2013-03-01 02:08:00,
2013-02-28 21:10:00,37.6,34.4,29.46,NNW,329,2.0,2.0,88,0.00,,,0.02,Wunderground v.1.12,2013-03-01 02:10:00,
2013-02-28 21:16:00,37.5,34.3,29.46,NNW,346,1.0,2.0,88,0.00,,,0.02,Wunderground v.1.12,2013-03-01 02:16:00,
2013-02-28 21:23:00,37.2,34.0,29.46,NNW,344,1.0,1.0,88,0.00,,,0.02,Wunderground v.1.12,2013-03-01 02:23:00,
2013-02-28 21:28:00,37.0,33.8,29.46,NNW,345,1.0,4.0,88,0.00,,,0.02,Wunderground v.1.12,2013-03-01 02:28:00,
2013-02-28 21:33:00,36.9,33.7,29.46,NNW,345,1.0,2.0,88,0.00,,,0.02,Wunderground v.1.12,2013-03-01 02:33:00,
2013-02-28 21:35:00,37.0,33.8,29.46,NNW,338,1.0,8.0,88,0.00,,,0.02,Wunderground v.1.12,2013-03-01 02:35:00,
2013-02-28 21:38:00,36.8,33.9,29.46,NNW,344,1.0,4.0,89,0.00,,,0.02,Wunderground v.1.12,2013-03-01 02:38:00,
2013-02-28 21:44:00,36.8,33.9,29.46,NNW,344,1.0,1.0,89,0.00,,,0.02,Wunderground v.1.12,2013-03-01 02:44:00,
2013-02-28 21:49:00,36.6,33.7,29.46,NNW,344,1.0,1.0,89,0.00,,,0.02,Wunderground v.1.12,2013-03-01 02:49:00,
2013-02-28 21:54:00,36.5,33.6,29.46,NNW,344,0.0,1.0,89,0.00,,,0.02,Wunderground v.1.12,2013-03-01 02:54:00,
2013-02-28 21:59:00,36.5,33.6,29.46,NNW,343,1.0,1.0,89,0.00,,,0.02,Wunderground v.1.12,2013-03-01 02:59:00,
2013-02-28 22:05:00,36.3,33.4,29.46,NNW,344,1.0,1.0,89,0.00,,,0.02,Wunderground v.1.12,2013-03-01 03:05:00,
2013-02-28 22:06:00,36.5,33.6,29.46,NNW,338,1.0,6.0,89,0.00,,,0.02,Wunderground v.1.12,2013-03-01 03:06:00,
2013-02-28 22:10:00,36.3,33.4,29.46,NNW,345,1.0,4.0,89,0.00,,,0.02,Wunderground v.1.12,2013-03-01 03:10:00,
2013-02-28 22:16:00,36.2,33.3,29.45,NNW,345,2.0,2.0,89,0.00,,,0.02,Wunderground v.1.12,2013-03-01 03:16:00,
2013-02-28 22:21:00,36.0,33.1,29.45,NNW,343,1.0,3.0,89,0.00,,,0.02,Wunderground v.1.12,2013-03-01 03:21:00,
2013-02-28 22:26:00,36.0,33.1,29.45,NNW,345,2.0,6.0,89,0.00,,,0.02,Wunderground v.1.12,2013-03-01 03:26:00,
2013-02-28 22:33:00,35.9,33.0,29.45,NNW,344,2.0,5.0,89,0.00,,,0.02,Wunderground v.1.12,2013-03-01 03:33:00,
2013-02-28 22:38:00,35.8,32.9,29.45,NNW,346,1.0,2.0,89,0.00,,,0.02,Wunderground v.1.12,2013-03-01 03:38:00,
2013-02-28 22:44:00,35.8,32.9,29.44,NNW,345,1.0,2.0,89,0.00,,,0.02,Wunderground v.1.12,2013-03-01 03:44:00,
2013-02-28 22:49:00,35.6,32.7,29.44,NNW,342,2.0,5.0,89,0.00,,,0.02,Wunderground v.1.12,2013-03-01 03:49:00,
2013-02-28 22:55:00,35.6,32.7,29.44,NNW,348,3.0,3.0,89,0.00,,,0.02,Wunderground v.1.12,2013-03-01 03:55:00,
2013-02-28 23:01:00,35.5,32.6,29.44,NNW,341,2.0,4.0,89,0.00,,,0.02,Wunderground v.1.12,2013-03-01 04:01:00,
2013-02-28 23:06:00,35.5,32.6,29.44,NNW,338,2.0,9.0,89,0.00,,,0.02,Wunderground v.1.12,2013-03-01 04:06:00,
2013-02-28 23:08:00,35.5,32.6,29.44,NW,325,3.0,8.0,89,0.00,,,0.02,Wunderground v.1.12,2013-03-01 04:08:00,
2013-02-28 23:13:00,35.5,32.6,29.44,NNW,342,3.0,5.0,89,0.00,,,0.02,Wunderground v.1.12,2013-03-01 04:13:00,
2013-02-28 23:18:00,35.3,32.4,29.43,NNW,348,3.0,5.0,89,0.00,,,0.02,Wunderground v.1.12,2013-03-01 04:18:00,
2013-02-28 23:23:00,35.3,32.1,29.43,NNW,338,2.0,5.0,88,0.00,,,0.02,Wunderground v.1.12,2013-03-01 04:23:00,
2013-02-28 23:28:00,35.3,32.1,29.43,NNW,346,2.0,5.0,88,0.00,,,0.02,Wunderground v.1.12,2013-03-01 04:28:00,
2013-02-28 23:33:00,35.2,32.0,29.44,NNW,342,3.0,7.0,88,0.00,,,0.02,Wunderground v.1.12,2013-03-01 04:33:00,
2013-02-28 23:38:00,35.3,32.1,29.44,NNW,338,3.0,11.0,88,0.00,,,0.02,Wunderground v.1.12,2013-03-01 04:38:00,
2013-02-28 23:39:00,35.2,32.0,29.44,NNW,344,3.0,5.0,88,0.00,,,0.02,Wunderground v.1.12,2013-03-01 04:39:00,
2013-02-28 23:45:00,35.3,32.1,29.43,NNW,334,2.0,2.0,88,0.00,,,0.02,Wunderground v.1.12,2013-03-01 04:45:00,
2013-02-28 23:50:00,35.2,32.0,29.43,NNW,335,1.0,2.0,88,0.00,,,0.02,Wunderground v.1.12,2013-03-01 04:50:00,
2013-02-28 23:55:00,35.2,32.0,29.43,NNW,341,2.0,2.0,88,0.00,,,0.02,Wunderground v.1.12,2013-03-01 04:55:00,